Wind_Speed
11 11 12 12 13 12 13 13 13 13 13 14 15 16 17 17 18 19 19 20 21 21 22 22 23 23 24 25 25 26 26 27 28 28 28 28 29 29
12 12 12 12 12 12 12 13 14 14 15 15 16 17 18 19 20 20 20 21 21 22 22 23 24 25 26 26 27 28 28 29 29 29 30 30 30 30
12 12 12 13 13 13 14 14 15 16 17 17 18 19 20 20 20 21 22 23 23 24 25 25 26 27 28 28 28 29 30 30 31 31 31 31 31 31
13 13 14 14 14 14 15 16 16 17 18 18 19 20 20 21 21 22 23 23 25 26 26 27 28 29 29 29 30 30 31 31 31 32 32 33 33 33
14 14 14 14 14 15 16 17 17 18 18 19 20 20 20 21 21 23 24 25 26 26 27 28 29 30 30 30 31 31 32 32 33 33 34 34 34 35
15 15 14 14 15 16 17 17 18 18 18 20 20 21 20 21 22 23 24 25 25 25 27 28 29 30 29 30 31 31 32 32 33 34 34 34 34 34
15 14 15 16 16 17 18 18 19 19 20 20 21 21 21 22 23 24 24 24 25 26 27 28 28 29 29 30 30 31 32 33 33 34 34 35 34 35
14 15 16 16 17 18 18 19 19 20 20 21 21 21 22 23 23 24 24 25 26 26 27 28 29 30 30 30 31 32 33 33 33 33 34 35 34 35
15 15 16 16 17 18 18 19 20 20 20 21 22 22 23 24 24 24 25 26 26 27 27 29 30 30 31 31 32 33 33 33 34 34 35 35 35 35
15 16 16 17 18 19 19 19 19 20 21 21 22 23 24 24 25 26 27 27 28 29 29 30 31 31 31 32 33 33 33 34 34 34 34 34 34 34
16 17 17 18 18 19 19 19 20 21 22 22 23 24 25 25 26 27 28 29 29 30 30 31 32 32 33 33 33 33 34 34 35 34 35 34 33 34
17 17 17 18 18 19 19 20 21 22 22 23 24 25 26 27 28 28 29 29 30 30 31 32 32 33 33 33 34 34 34 34 34 34 34 34 34 34
18 18 19 19 20 20 21 21 22 23 24 25 25 26 27 28 29 29 30 30 31 31 32 32 33 33 33 34 35 35 35 34 34 34 34 34 35 34
19 20 20 20 21 22 22 23 23 24 25 26 27 28 29 29 30 30 30 31 31 32 32 33 33 33 34 34 35 35 35 34 34 34 34 35 35 34
21 21 22 22 23 23 23 24 25 26 27 28 29 29 30 30 31 31 32 32 33 33 34 34 34 35 35 35 35 35 34 34 34 34 34 34 34 34
23 23 23 24 24 24 25 26 27 27 28 29 30 30 31 32 32 33 33 33 33 34 34 35 35 35 35 35 35 35 34 34 34 34 34 34 34 33
24 24 24 25 25 26 26 27 28 28 29 30 31 31 32 33 33 34 34 34 34 35 35 36 36 36 35 35 35 34 34 33 34 34 34 33 33 31
24 24 25 26 26 27 28 29 30 30 30 31 31 32 33 33 34 35 35 35 35 36 36 36 36 36 35 35 34 33 33 33 33 33 33 32 31 30
25 26 27 27 27 28 29 30 31 31 31 32 33 34 34 35 35 36 36 36 37 36 36 36 36 36 35 34 34 34 33 33 33 33 32 31 30 29
27 28 29 29 29 30 31 32 32 33 33 34 35 35 36 36 36 37 37 37 37 37 37 37 37 36 35 34 34 33 33 33 32 32 31 30 29 29
29 29 30 31 31 32 33 33 34 35 35 35 36 37 37 37 37 37 37 38 38 37 38 37 36 36 36 35 34 33 33 32 32 31 30 29 29 28
31 32 32 32 33 34 34 35 35 35 36 37 38 38 38 38 38 38 38 38 38 37 37 36 36 36 35 35 34 33 33 32 32 31 31 30 29 29
32 33 33 33 34 35 35 36 36 36 37 37 38 39 39 38 38 38 38 38 37 37 36 36 36 36 35 35 35 34 33 33 32 31 31 31 30 29
Wind_Direction
306 304 302 302 301 300 300 300 301 303 303 299 296 297 296 291 291 290 291 290 290 289 289 288 287 286 285 286 286 287 288 288 288 288 287 287 286 285
306 304 304 308 308 307 307 305 304 304 303 302 302 303 301 298 295 295 294 295 294 292 289 289 289 288 287 287 287 287 288 288 287 287 287 286 286 285
305 304 304 306 308 305 306 306 305 303 301 300 301 301 300 299 297 297 296 294 293 291 290 290 290 290 289 289 289 288 288 287 286 285 285 285 285 285
307 307 307 305 306 306 307 306 304 302 301 301 302 301 300 298 299 298 298 297 294 292 291 291 291 290 289 288 289 289 288 288 287 286 286 286 286 285
306 307 305 303 304 306 306 305 305 305 304 304 305 304 302 300 300 300 300 297 296 295 293 293 291 290 289 289 288 288 288 287 288 287 287 286 286 286
305 304 303 302 303 304 305 305 305 305 304 305 307 307 304 303 304 303 302 300 299 297 296 295 294 294 292 291 289 289 290 289 290 288 288 288 287 288
305 304 304 304 305 304 303 303 304 305 305 306 307 307 306 306 307 308 306 304 304 302 300 300 298 296 295 293 292 292 292 292 292 291 291 290 289 288
307 308 307 306 306 305 303 303 304 305 306 308 309 309 309 309 308 308 308 307 306 306 305 304 303 300 296 295 294 294 293 292 292 292 292 292 290 289
312 312 311 311 309 308 307 307 307 308 308 308 310 311 310 310 309 308 308 308 309 308 307 306 305 303 302 300 300 298 296 294 294 294 294 293 291 290
313 313 313 313 312 311 310 309 308 308 309 308 310 311 311 311 311 310 309 309 308 307 307 307 306 305 304 302 301 300 300 300 298 296 295 295 294 293
313 313 313 312 312 312 311 310 309 309 311 311 312 314 314 312 312 311 311 311 310 309 308 307 307 307 306 305 304 303 302 301 300 298 296 296 296 295
312 312 312 313 313 313 313 312 311 312 313 315 316 316 315 314 314 313 313 312 311 310 310 309 308 308 307 306 305 304 304 303 302 300 299 299 299 299
310 310 310 311 312 312 313 312 312 312 313 315 316 317 318 317 317 316 314 313 312 312 311 310 310 309 308 306 305 306 305 304 302 302 301 301 301 299
307 308 309 309 309 310 311 311 311 311 313 314 315 317 318 318 318 317 317 316 315 314 313 312 311 310 309 308 307 306 305 304 302 302 302 302 301 300
305 305 305 305 307 308 310 310 310 311 312 313 314 315 316 317 317 317 316 316 315 315 314 313 312 311 310 310 309 307 306 304 303 303 302 302 301 301
304 303 303 304 305 306 308 309 310 311 311 312 314 315 315 316 316 316 316 316 315 315 315 315 314 313 312 311 310 308 306 305 304 303 303 303 302 300
303 302 303 305 305 306 308 309 309 309 310 312 313 314 315 315 315 315 315 315 315 315 315 315 315 314 313 311 310 308 307 306 305 304 304 303 302 301
303 303 303 305 305 306 307 309 309 309 310 311 312 313 314 315 315 315 315 315 315 315 315 315 315 314 314 313 311 310 308 307 307 306 305 304 302 300
303 302 302 303 304 306 307 307 308 308 309 310 312 313 314 314 315 315 314 314 314 314 315 315 315 314 314 313 311 310 310 309 309 308 306 304 302 299
302 301 300 301 302 304 305 306 306 306 307 308 310 312 313 313 314 314 313 314 314 314 314 314 314 314 313 313 312 311 311 310 309 309 308 306 304 301
299 300 300 301 302 303 303 304 305 306 307 308 309 310 310 311 312 313 313 313 314 313 313 313 313 313 313 313 313 312 312 312 311 311 309 308 306 304
297 297 299 300 301 302 303 303 304 305 306 308 309 309 309 310 311 311 312 313 313 313 312 312 312 312 312 313 313 312 312 311 310 310 309 308 306 304
297 298 299 299 300 301 301 302 303 303 304 306 308 309 309 310 311 311 312 313 313 312 312 312 312 312 312 312 312 311 311 311 310 309 308 308 306 304
Height
5877 5876 5874 5873 5872 5871 5870 5869 5868 5866 5864 5863 5861 5859 5858 5857 5856 5855 5854 5852 5851 5849 5847 5846 5844 5843 5842 5840 5838 5837 5835 5833 5832 5830 5829 5827 5826 5824
5875 5874 5872 5871 5870 5868 5867 5866 5865 5863 5861 5860 5858 5857 5854 5853 5851 5850 5848 5847 5845 5844 5842 5840 5839 5837 5835 5834 5832 5830 5828 5826 5825 5823 5821 5820 5818 5816
5872 5871 5870 5869 5868 5866 5865 5863 5861 5860 5858 5857 5854 5853 5851 5849 5847 5845 5843 5842 5840 5838 5836 5834 5832 5830 5829 5827 5825 5823 5821 5819 5817 5815 5813 5811 5809 5808
5870 5869 5867 5866 5865 5863 5862 5860 5858 5856 5855 5853 5851 5848 5846 5844 5842 5840 5838 5836 5834 5832 5829 5827 5825 5823 5821 5819 5817 5815 5813 5811 5809 5807 5805 5803 5801 5798
5867 5866 5864 5863 5862 5860 5858 5857 5855 5853 5850 5848 5846 5844 5841 5839 5837 5835 5832 5830 5827 5825 5822 5820 5818 5816 5813 5811 5809 5807 5804 5802 5800 5798 5795 5793 5791 5788
5864 5862 5861 5860 5858 5857 5855 5853 5851 5849 5846 5844 5842 5839 5837 5834 5832 5829 5827 5824 5821 5818 5816 5813 5810 5807 5805 5802 5800 5798 5795 5793 5790 5788 5785 5783 5780 5778
5861 5859 5857 5856 5855 5853 5851 5849 5847 5845 5842 5840 5837 5835 5832 5829 5827 5824 5821 5818 5814 5812 5809 5806 5803 5800 5797 5794 5792 5789 5787 5784 5781 5779 5776 5773 5770 5768
5857 5856 5854 5853 5851 5849 5847 5845 5843 5841 5838 5835 5833 5830 5827 5824 5821 5818 5815 5812 5809 5806 5802 5799 5795 5792 5789 5786 5783 5780 5778 5775 5772 5769 5766 5763 5760 5758
5855 5853 5851 5849 5847 5845 5843 5841 5839 5836 5834 5831 5828 5825 5822 5819 5815 5812 5809 5806 5803 5799 5796 5792 5788 5785 5781 5778 5775 5772 5769 5765 5762 5759 5756 5753 5750 5747
5852 5850 5848 5846 5843 5841 5839 5837 5834 5832 5829 5826 5824 5820 5817 5813 5810 5807 5803 5800 5796 5793 5789 5785 5781 5777 5774 5770 5767 5763 5760 5756 5753 5749 5746 5743 5740 5737
5848 5846 5844 5842 5840 5837 5835 5833 5830 5827 5824 5821 5818 5815 5811 5808 5804 5801 5797 5793 5789 5786 5782 5778 5774 5770 5766 5762 5758 5754 5751 5747 5743 5740 5737 5733 5730 5727
5845 5843 5841 5838 5836 5833 5831 5828 5825 5822 5819 5816 5813 5809 5805 5802 5798 5794 5791 5787 5783 5779 5774 5770 5766 5762 5758 5754 5750 5746 5742 5738 5734 5731 5727 5724 5720 5717
5841 5839 5837 5834 5832 5829 5826 5824 5821 5818 5814 5811 5808 5804 5800 5796 5792 5788 5784 5780 5776 5772 5767 5763 5758 5754 5750 5746 5741 5737 5733 5729 5725 5721 5717 5714 5710 5707
5837 5835 5832 5830 5827 5825 5822 5819 5816 5813 5809 5806 5802 5798 5794 5790 5786 5781 5777 5773 5768 5764 5759 5755 5750 5746 5742 5737 5733 5728 5724 5719 5716 5712 5708 5704 5701 5697
5832 5830 5827 5825 5822 5819 5816 5813 5810 5807 5803 5800 5796 5792 5788 5783 5779 5774 5770 5765 5761 5756 5751 5747 5742 5737 5733 5728 5724 5719 5715 5711 5706 5702 5699 5695 5691 5687
5827 5824 5822 5819 5817 5814 5811 5807 5804 5800 5797 5793 5789 5785 5781 5776 5772 5768 5763 5758 5753 5748 5743 5738 5733 5729 5724 5719 5715 5710 5705 5701 5697 5693 5689 5685 5681 5678
5821 5819 5816 5813 5811 5808 5804 5801 5797 5794 5790 5786 5782 5778 5774 5769 5765 5760 5755 5750 5745 5740 5735 5730 5725 5720 5715 5711 5706 5701 5697 5692 5688 5684 5680 5676 5672 5669
5815 5812 5810 5807 5804 5801 5798 5794 5791 5787 5783 5779 5775 5771 5766 5762 5757 5752 5747 5742 5737 5732 5727 5722 5717 5712 5707 5701 5697 5692 5688 5683 5679 5675 5671 5667 5664 5660
5809 5806 5803 5800 5797 5794 5791 5787 5783 5779 5775 5771 5767 5763 5758 5754 5749 5744 5739 5734 5728 5723 5718 5713 5708 5703 5698 5693 5688 5683 5679 5674 5670 5666 5662 5658 5655 5651
5802 5799 5796 5793 5790 5787 5783 5780 5776 5771 5767 5763 5759 5755 5750 5745 5740 5735 5730 5725 5720 5715 5709 5704 5699 5694 5690 5685 5680 5675 5670 5666 5662 5657 5653 5649 5646 5643
5794 5791 5788 5785 5782 5779 5775 5771 5767 5763 5759 5755 5750 5746 5741 5736 5732 5727 5721 5716 5711 5706 5701 5696 5691 5686 5681 5676 5672 5667 5662 5657 5653 5649 5645 5641 5638 5635
5786 5783 5780 5777 5773 5770 5766 5762 5758 5754 5750 5746 5742 5737 5732 5727 5722 5717 5712 5707 5702 5697 5692 5687 5682 5677 5672 5668 5663 5659 5654 5649 5645 5640 5636 5633 5629 5626
5777 5774 5771 5767 5764 5761 5757 5753 5749 5745 5741 5737 5732 5727 5723 5718 5713 5708 5703 5698 5693 5688 5683 5678 5673 5668 5663 5659 5654 5650 5645 5641 5637 5633 5629 5625 5621 5618